Ana Sayfa
METAR-TAF:

METAR-TAF

Havaalanları :

Harrisburg, Pensilvanya, Amerika Birleşik Devletleri

Enlem: 40-13-02N, Boylam: 076-51-05W, yükseklik: 106 m

Güncel hava durumu gözlemi

Rapor saat 21:56 UTC de 17 dakika önce yapıldı.
Sakin rüzgar
Sıcaklık 4°C
Nem 48%
Basınç 1027 hPa
Görüş mesafesi: 16.1 km
Açık gökyüzü

METAR: KCXY 232156Z 00000KT 10SM CLR 04/M06 A3033 RMK AO2 SLP276 T00391061

Saat: 17:13 (22:13 UTC)


TAF: eksik

4.000'den fazla havaalanı için hava durumu gözlemleri ve tahminleri (METAR ve TAF raporları).

Kullanılabilir istasyonlar harita üzerinde sarı ve kırmızı noktalarla gösterilir.

İstasyonun adını görmek için fareyi noktanın üzerinde gezdirin.

Sonrasında hava gözlem ve tahminlerini görmek için tıklayın.

Haritayı değiştirmek için: yaklaştırmak için siyah artı işaretli yeşil düğmeye ve uzaklaştırmak için de eksi işaretli düğmeye hızla tıklayın; bitişik haritalar için yeşil okları kullanın.


METAR-TAF: